Change the Weather History Date:

Wednesday, January 9, 2013

  Actual Average (KPBG) Record (KPBG)
Temperature  
Mean Temperature 28 °F 17 °F  
Max Temperature 39 °F 28 °F 50 °F (1978)
Min Temperature 18 °F 7 °F -20 °F (1976)
Degree Days  
Heating Degree Days 36 48  
Month to date heating degree days 421  
Since 1 July heating degree days 3307  
Cooling Degree Days 0 0  
Month to date cooling degree days 0  
Year to date cooling degree days 0  
Moisture  
Dew Point 23 °F    
Average Humidity 73    
Maximum Humidity 93    
Minimum Humidity 51    
Precipitation  
Precipitation 0.00 in - 1.40 in (1978)
Month to date precipitation  
Year to date precipitation  
Sea Level Pressure  
Sea Level Pressure 30.10 in    
Wind  
Wind Speed 5 mph (SSW)    
Max Wind Speed 16 mph    
Max Gust Speed 31 mph    
Visibility 9 miles    
Events      
T = Trace of Precipitation, MM = Missing Value Source: NWS Daily Summary

Daily Weather History Graph

Daily Weather History Graph

Search for Another Location

Airport or City:

Trip Planner

Search our weather history database for the weather conditions in past years. The results will help you decide how hot, cold, wet, or windy it might be!

Date:

Astronomy

Jan. 09, 2013 Rise Set
Actual Time 7:29 AM EST 4:30 PM EST
Civil Twilight 6:56 AM EST 5:03 PM EST
Nautical Twilight 6:19 AM EST 5:40 PM EST
Astronomical Twilight 5:44 AM EST 6:15 PM EST
Moon 5:05 AM EST (1/9) 2:28 PM EST (1/9)
Length of Visible Light 10h 07m
Length of Day
9h 00m
Waning Crescent, 6% of the Moon is Illuminated
Jan 9
Waning Crescent
Jan 11
New
Jan 18
First Quarter
Jan 26
Full
Feb 3
Last Quarter

Hourly Weather History & Observations

Time (EST) Temp. Windchill Dew Point Humidity Pressure Visibility Wind Dir Wind Speed Gust Speed Precip Events Conditions
12:15 AM 28.9 °F 25.2 °F 23.7 °F 81% 30.34 in 10.0 mi South 3.5 mph - N/A   Overcast
12:35 AM 27.1 °F - 22.5 °F 83% 30.34 in 10.0 mi Calm Calm - N/A   Overcast
1:15 AM 31.8 °F 27.3 °F 25.2 °F 76% 30.34 in 10.0 mi South 4.6 mph - N/A   Mostly Cloudy
1:35 AM 30.6 °F - 23.5 °F 75% 30.34 in 10.0 mi Calm Calm - N/A   Scattered Clouds
1:55 AM 22.1 °F - 18.3 °F 85% 30.34 in 7.0 mi Calm Calm - N/A   Clear
2:15 AM 23.4 °F 17.4 °F 20.8 °F 90% 30.34 in 5.0 mi ESE 4.6 mph - N/A   Clear
2:35 AM 27.1 °F 23.2 °F 24.4 °F 90% 30.34 in 7.0 mi ESE 3.5 mph - N/A   Clear
2:55 AM 24.6 °F - 22.1 °F 90% 30.33 in 7.0 mi Calm Calm - N/A   Clear
3:15 AM 25.7 °F - 23.2 °F 90% 30.33 in 7.0 mi Calm Calm - N/A   Clear
3:35 AM 21.7 °F 17.0 °F 19.2 °F 90% 30.32 in 5.0 mi ESE 3.5 mph - N/A   Clear
3:55 AM 20.8 °F - 19.0 °F 93% 30.31 in 5.0 mi Calm Calm - N/A   Clear
4:15 AM 23.9 °F - 22.1 °F 93% 30.30 in 7.0 mi Calm Calm - N/A   Clear
4:35 AM 24.6 °F 18.8 °F 22.8 °F 93% 30.29 in 7.0 mi SSE 4.6 mph - N/A   Clear
4:55 AM 22.1 °F - 19.6 °F 90% 30.29 in 7.0 mi Calm Calm - N/A   Clear
5:15 AM 23.5 °F 19.1 °F 21.6 °F 92% 30.29 in 7.0 mi SSE 3.5 mph - N/A   Clear
5:35 AM 21.2 °F 16.4 °F 19.2 °F 92% 30.29 in 4.0 mi SSE 3.5 mph - N/A   Clear
5:55 AM 22.1 °F 17.4 °F 20.1 °F 92% 30.29 in 5.0 mi SE 3.5 mph - N/A   Clear
6:15 AM 21.9 °F 17.2 °F 19.9 °F 92% 30.28 in 7.0 mi SSE 3.5 mph - N/A   Clear
6:35 AM 22.1 °F 17.4 °F 19.9 °F 91% 30.29 in 7.0 mi SSE 3.5 mph - N/A   Clear
6:55 AM 22.1 °F - 20.3 °F 93% 30.29 in 7.0 mi Calm Calm - N/A   Clear
7:15 AM 19.2 °F 12.5 °F 16.7 °F 90% 30.28 in 4.0 mi SSE 4.6 mph - N/A   Clear
7:35 AM 19.4 °F 12.8 °F 17.6 °F 93% 30.28 in 5.0 mi South 4.6 mph - N/A   Clear
7:55 AM 19.4 °F 14.3 °F 17.4 °F 92% 30.26 in 4.0 mi SSE 3.5 mph - N/A   Clear
8:15 AM 19.9 °F 13.4 °F 18.1 °F 93% 30.26 in 4.0 mi SSE 4.6 mph - N/A   Clear
8:35 AM 18.1 °F 11.3 °F 16.2 °F 92% 30.25 in 4.0 mi SSE 4.6 mph - N/A   Clear
8:55 AM 21.4 °F 15.1 °F 19.6 °F 93% 30.23 in 5.0 mi SSE 4.6 mph - N/A   Clear
9:35 AM 27.1 °F 23.2 °F 21.9 °F 81% 30.20 in 10.0 mi South 3.5 mph - N/A   Clear
9:55 AM 27.1 °F 23.2 °F 19.8 °F 74% 30.21 in 10.0 mi South 3.5 mph - N/A   Clear
10:15 AM 32.0 °F 28.7 °F 21.7 °F 66% 30.18 in 10.0 mi South 3.5 mph - N/A   Clear
10:35 AM 32.0 °F 27.5 °F 20.7 °F 63% 30.16 in 10.0 mi South 4.6 mph - N/A   Clear
10:55 AM 34.3 °F 27.7 °F 21.2 °F 59% 30.13 in 10.0 mi South 8.1 mph - N/A   Clear
11:15 AM 34.3 °F 25.9 °F 20.5 °F 57% 30.09 in 10.0 mi South 11.5 mph 17.3 mph N/A   Clear
11:35 AM 34.3 °F 24.6 °F 20.3 °F 57% 30.04 in 10.0 mi SSE 15.0 mph 19.6 mph N/A   Clear
11:55 AM 36.9 °F 29.1 °F 21.2 °F 53% 30.02 in 10.0 mi South 11.5 mph 18.4 mph N/A   Clear
12:15 PM 36.9 °F 30.7 °F 21.2 °F 53% 30.08 in 10.0 mi SW 8.1 mph 16.1 mph N/A   Clear
1:15 PM 34.7 °F 28.1 °F 21.6 °F 59% 30.03 in 10.0 mi South 8.1 mph - N/A   Mostly Cloudy
1:35 PM 34.3 °F 27.7 °F 21.7 °F 60% 29.99 in 10.0 mi South 8.1 mph - N/A   Overcast
1:55 PM 36.7 °F 29.9 °F 22.8 °F 57% 29.96 in 10.0 mi South 9.2 mph - N/A   Overcast
2:15 PM 36.9 °F 29.6 °F 22.6 °F 56% 29.95 in 10.0 mi SSE 10.4 mph - N/A   Overcast
2:35 PM 37.4 °F 30.8 °F 22.1 °F 54% 29.92 in 10.0 mi South 9.2 mph 20.7 mph N/A   Overcast
3:15 PM 38.3 °F 31.4 °F 21.4 °F 51% 29.90 in 10.0 mi South 10.4 mph 16.1 mph N/A   Overcast
3:35 PM 38.3 °F 31.4 °F 21.7 °F 51% 29.89 in 10.0 mi South 10.4 mph 16.1 mph N/A   Overcast
3:55 PM 37.6 °F 31.0 °F 22.5 °F 54% 29.88 in 10.0 mi SSW 9.2 mph 18.4 mph N/A   Overcast
4:15 PM 36.9 °F 30.1 °F 22.6 °F 56% 29.87 in 10.0 mi SSW 9.2 mph 17.3 mph N/A   Overcast
4:35 PM 36.9 °F 29.1 °F 23.4 °F 58% 29.84 in 10.0 mi South 11.5 mph 18.4 mph N/A   Overcast
4:55 PM 37.0 °F 29.8 °F 23.9 °F 59% 29.84 in 10.0 mi SSW 10.4 mph 18.4 mph N/A   Overcast
5:15 PM 36.9 °F 30.7 °F 24.6 °F 61% 29.84 in 10.0 mi SSW 8.1 mph 21.9 mph N/A   Overcast
5:35 PM 36.9 °F 30.7 °F 25.3 °F 63% 29.84 in 10.0 mi SSW 8.1 mph 16.1 mph N/A   Overcast
5:55 PM 36.9 °F 31.4 °F 25.7 °F 64% 29.85 in 10.0 mi SSW 6.9 mph - N/A   Overcast
6:15 PM 36.9 °F 29.6 °F 26.2 °F 65% 29.86 in 10.0 mi SSW 10.4 mph 17.3 mph N/A   Overcast
6:35 PM 36.9 °F 30.7 °F 26.2 °F 65% 29.87 in 10.0 mi SSW 8.1 mph 17.3 mph N/A   Overcast
6:55 PM 36.9 °F 30.7 °F 26.6 °F 66% 29.87 in 10.0 mi SSW 8.1 mph - N/A   Overcast
7:15 PM 36.9 °F 30.7 °F 27.1 °F 68% 29.88 in 10.0 mi SW 8.1 mph - N/A   Overcast
7:35 PM 38.1 °F 30.7 °F 27.7 °F 66% 29.89 in 10.0 mi West 11.5 mph 26.5 mph N/A   Light Drizzle
8:15 PM 39.4 °F 32.3 °F 26.6 °F 60% 29.90 in 10.0 mi West 11.5 mph 24.2 mph N/A   Overcast
8:35 PM 39.4 °F 32.3 °F 25.5 °F 58% 29.90 in 10.0 mi West 11.5 mph 21.9 mph N/A   Overcast
8:55 PM 39.4 °F 32.7 °F 25.7 °F 58% 29.90 in 10.0 mi West 10.4 mph 19.6 mph N/A   Overcast
9:35 PM 39.4 °F 32.7 °F 26.2 °F 59% 29.92 in 10.0 mi West 10.4 mph 19.6 mph N/A   Overcast
9:55 PM 39.4 °F 30.7 °F 26.6 °F 60% 29.93 in 10.0 mi West 16.1 mph 31.1 mph N/A   Overcast
10:15 PM 38.3 °F 30.9 °F 28.0 °F 67% 29.94 in 10.0 mi West 11.5 mph 23.0 mph N/A   Overcast
10:35 PM 36.9 °F 29.6 °F 28.2 °F 71% 29.95 in 10.0 mi West 10.4 mph 19.6 mph N/A   Overcast
10:55 PM 36.9 °F 30.1 °F 30.7 °F 79% 29.96 in 10.0 mi West 9.2 mph 17.3 mph N/A   Overcast
11:15 PM 36.3 °F 30.1 °F 30.9 °F 81% 29.96 in 10.0 mi West 8.1 mph 16.1 mph N/A   Overcast
11:35 PM 36.1 °F 29.9 °F 30.2 °F 79% 29.97 in 10.0 mi West 8.1 mph - N/A   Overcast
11:55 PM 36.7 °F 28.4 °F 29.1 °F 74% 29.97 in 10.0 mi West 12.7 mph 19.6 mph N/A   Overcast